• In Belgien
  • Länderverzeichnis
  • Für 7 Tage
  • Wassertemperatur
  • Satellitenkarten
  • Wetterkarte
  • Widgets
  • user-avatar
    Anmelden

    Stündliche Wetter Andenne

    Heute, 19 Februar, Montag

    Zeit Temperatur Niederschläge Wind Luftdruck Luftfeuchtigkeit
    00:00 -2°C° 0 mm 2 m/S 756 mmHg 84%
    01:00 -2°C° 0 mm 2 m/S 756 mmHg 84%
    02:00 -2°C° 0 mm 2 m/S 755 mmHg 83%
    03:00 -2°C° 0 mm 2 m/S 755 mmHg 82%
    04:00 -2°C° 0 mm 2 m/S 755 mmHg 81%
    05:00 -2°C° 0 mm 2 m/S 755 mmHg 79%
    06:00 -2°C° 0 mm 2 m/S 755 mmHg 78%
    07:00 -1°C° 0 mm 2 m/S 754 mmHg 74%
    08:00 +1°C° 0 mm 2 m/S 754 mmHg 70%
    09:00 +2°C° 0 mm 2 m/S 754 mmHg 66%
    10:00 +3°C° 0 mm 2 m/S 754 mmHg 63%
    11:00 +4°C° 0 mm 2 m/S 753 mmHg 60%
    12:00 +5°C° 0 mm 2 m/S 753 mmHg 56%
    13:00 +5°C° 0 mm 2 m/S 753 mmHg 57%
    14:00 +7°C° 0 mm 1 m/S 752 mmHg 58%
    15:00 +7°C° 0 mm 1 m/S 752 mmHg 59%
    16:00 +6°C° 0,1 mm 1 m/S 752 mmHg 63%
    17:00 +5°C° 0,1 mm 1 m/S 752 mmHg 68%
    18:00 +4°C° 0,1 mm 1 m/S 752 mmHg 72%
    19:00 +4°C° 0,1 mm 1 m/S 751 mmHg 74%
    20:00 +4°C° 0,1 mm 1 m/S 751 mmHg 75%
    21:00 +3°C° 0,1 mm 1 m/S 751 mmHg 77%
    22:00 +3°C° 0 mm 1 m/S 751 mmHg 77%
    23:00 +3°C° 0 mm 1 m/S 751 mmHg 78%

    Morgen, 20 Februar, Dienstag

    Zeit Temperatur Niederschläge Wind Luftdruck Luftfeuchtigkeit
    00:00 +3°C° 0 mm 1 m/S 751 mmHg 79%
    01:00 +2°C° 0 mm 1 m/S 751 mmHg 80%
    02:00 +2°C° 0 mm 1 m/S 751 mmHg 81%
    03:00 +1°C° 0 mm 1 m/S 751 mmHg 82%
    04:00 +1°C° 0 mm 1 m/S 751 mmHg 82%
    05:00 +1°C° 0 mm 1 m/S 751 mmHg 82%
    06:00 0°C° 0 mm 1 m/S 751 mmHg 82%
    07:00 +1°C° 0 mm 1 m/S 752 mmHg 77%
    08:00 +3°C° 0 mm 1 m/S 752 mmHg 72%
    09:00 +4°C° 0 mm 1 m/S 752 mmHg 67%
    10:00 +5°C° 0 mm 1 m/S 752 mmHg 63%
    11:00 +5°C° 0 mm 2 m/S 752 mmHg 58%
    12:00 +6°C° 0 mm 2 m/S 752 mmHg 54%
    13:00 +6°C° 0 mm 2 m/S 752 mmHg 55%
    14:00 +5°C° 0 mm 3 m/S 752 mmHg 56%
    15:00 +5°C° 0 mm 3 m/S 752 mmHg 57%
    16:00 +3°C° 0 mm 3 m/S 753 mmHg 62%
    17:00 +2°C° 0 mm 3 m/S 753 mmHg 68%
    18:00 +1°C° 0 mm 2 m/S 753 mmHg 73%
    19:00 0°C° 0 mm 3 m/S 754 mmHg 75%
    20:00 -1°C° 0 mm 3 m/S 754 mmHg 76%
    21:00 -1°C° 0 mm 3 m/S 755 mmHg 77%
    22:00 -2°C° 0 mm 3 m/S 755 mmHg 79%
    23:00 -2°C° 0 mm 3 m/S 756 mmHg 80%

    übermorgen, 21 Februar, Mittwoch

    Zeit Temperatur Niederschläge Wind Luftdruck Luftfeuchtigkeit
    00:00 -2°C° 0 mm 3 m/S 756 mmHg 82%
    01:00 -4°C° 0 mm 3 m/S 756 mmHg 83%
    02:00 -3°C° 0 mm 2 m/S 756 mmHg 84%
    03:00 -3°C° 0 mm 2 m/S 756 mmHg 85%
    04:00 -3°C° 0 mm 2 m/S 757 mmHg 85%
    05:00 -4°C° 0 mm 3 m/S 757 mmHg 85%
    06:00 -4°C° 0 mm 3 m/S 757 mmHg 86%
    07:00 -2°C° 0 mm 3 m/S 757 mmHg 80%
    08:00 -1°C° 0 mm 3 m/S 757 mmHg 74%
    09:00 0°C° 0 mm 3 m/S 758 mmHg 68%
    10:00 +1°C° 0 mm 3 m/S 757 mmHg 63%
    11:00 +3°C° 0 mm 4 m/S 757 mmHg 58%
    12:00 +4°C° 0 mm 4 m/S 757 mmHg 52%
    13:00 +4°C° 0 mm 4 m/S 756 mmHg 53%
    14:00 +4°C° 0 mm 4 m/S 756 mmHg 53%
    15:00 +4°C° 0 mm 4 m/S 756 mmHg 53%
    16:00 +1°C° 0 mm 4 m/S 756 mmHg 59%
    17:00 +1°C° 0 mm 3 m/S 756 mmHg 65%
    18:00 -1°C° 0 mm 3 m/S 756 mmHg 71%
    19:00 -1°C° 0 mm 3 m/S 756 mmHg 72%
    20:00 -2°C° 0 mm 3 m/S 756 mmHg 73%
    21:00 -2°C° 0 mm 3 m/S 756 mmHg 75%
    22:00 -2°C° 0 mm 3 m/S 756 mmHg 75%
    23:00 -4°C° 0 mm 3 m/S 756 mmHg 76%

    22 Februar, Donnerstag

    Zeit Temperatur Niederschläge Wind Luftdruck Luftfeuchtigkeit
    00:00 -4°C° 0 mm 3 m/S 755 mmHg 77%
    01:00 -4°C° 0 mm 3 m/S 755 mmHg 77%
    02:00 -4°C° 0 mm 3 m/S 755 mmHg 78%
    03:00 -4°C° 0 mm 3 m/S 755 mmHg 78%
    04:00 -4°C° 0 mm 4 m/S 755 mmHg 78%
    05:00 -4°C° 0 mm 4 m/S 755 mmHg 78%
    06:00 -4°C° 0 mm 4 m/S 755 mmHg 78%
    07:00 -4°C° 0 mm 5 m/S 755 mmHg 72%
    08:00 -2°C° 0 mm 5 m/S 755 mmHg 67%
    09:00 -2°C° 0 mm 6 m/S 755 mmHg 62%
    10:00 -1°C° 0 mm 6 m/S 755 mmHg 56%
    11:00 +1°C° 0 mm 6 m/S 754 mmHg 50%
    12:00 +2°C° 0 mm 7 m/S 754 mmHg 44%
    13:00 +2°C° 0 mm 7 m/S 754 mmHg 44%
    14:00 +2°C° 0 mm 7 m/S 754 mmHg 43%
    15:00 +2°C° 0 mm 7 m/S 753 mmHg 43%
    16:00 +1°C° 0 mm 6 m/S 753 mmHg 48%
    17:00 -1°C° 0 mm 5 m/S 754 mmHg 53%
    18:00 -2°C° 0 mm 5 m/S 754 mmHg 58%
    19:00 -2°C° 0 mm 5 m/S 754 mmHg 60%
    20:00 -4°C° 0 mm 5 m/S 754 mmHg 63%
    21:00 -4°C° 0 mm 5 m/S 755 mmHg 65%
    22:00 -4°C° 0 mm 5 m/S 754 mmHg 66%
    23:00 -5°C° 0 mm 5 m/S 754 mmHg 68%

    23 Februar, Freitag

    Zeit Temperatur Niederschläge Wind Luftdruck Luftfeuchtigkeit
    00:00 -5°C° 0 mm 5 m/S 754 mmHg 70%
    01:00 -5°C° 0 mm 5 m/S 754 mmHg 70%
    02:00 -5°C° 0 mm 5 m/S 754 mmHg 71%
    03:00 -5°C° 0 mm 5 m/S 754 mmHg 71%
    04:00 -5°C° 0 mm 5 m/S 754 mmHg 70%
    05:00 -6°C° 0 mm 5 m/S 754 mmHg 70%
    06:00 -6°C° 0 mm 5 m/S 754 mmHg 69%
    07:00 -5°C° 0 mm 6 m/S 754 mmHg 62%
    08:00 -4°C° 0 mm 6 m/S 754 mmHg 56%
    09:00 -3°C° 0 mm 6 m/S 755 mmHg 50%
    10:00 -2°C° 0 mm 7 m/S 754 mmHg 45%
    11:00 -1°C° 0 mm 7 m/S 754 mmHg 41%
    12:00 0°C° 0 mm 7 m/S 754 mmHg 37%
    13:00 0°C° 0 mm 7 m/S 754 mmHg 37%
    14:00 0°C° 0 mm 7 m/S 754 mmHg 37%
    15:00 0°C° 0 mm 7 m/S 754 mmHg 37%
    16:00 -1°C° 0 mm 6 m/S 754 mmHg 40%
    17:00 -2°C° 0 mm 6 m/S 754 mmHg 44%
    18:00 -2°C° 0 mm 5 m/S 755 mmHg 48%
    19:00 -4°C° 0 mm 5 m/S 755 mmHg 49%
    20:00 -4°C° 0 mm 5 m/S 756 mmHg 51%
    21:00 -5°C° 0 mm 5 m/S 756 mmHg 53%
    22:00 -5°C° 0 mm 5 m/S 756 mmHg 53%
    23:00 -5°C° 0 mm 5 m/S 756 mmHg 52%

    24 Februar, Samstag

    Zeit Temperatur Niederschläge Wind Luftdruck Luftfeuchtigkeit
    00:00 -5°C° 0 mm 5 m/S 757 mmHg 51%
    01:00 -6°C° 0 mm 5 m/S 757 mmHg 49%
    02:00 -6°C° 0 mm 5 m/S 757 mmHg 47%
    03:00 -6°C° 0 mm 5 m/S 757 mmHg 44%
    04:00 -6°C° 0 mm 5 m/S 757 mmHg 42%
    05:00 -6°C° 0 mm 5 m/S 757 mmHg 40%
    06:00 -6°C° 0 mm 5 m/S 758 mmHg 38%
    07:00 -5°C° 0 mm 6 m/S 758 mmHg 34%
    08:00 -4°C° 0 mm 6 m/S 758 mmHg 31%
    09:00 -3°C° 0 mm 7 m/S 759 mmHg 27%
    10:00 -2°C° 0 mm 7 m/S 759 mmHg 27%
    11:00 -1°C° 0 mm 7 m/S 759 mmHg 27%
    12:00 0°C° 0 mm 7 m/S 759 mmHg 27%
    13:00 0°C° 0 mm 7 m/S 759 mmHg 28%
    14:00 0°C° 0 mm 7 m/S 758 mmHg 30%
    15:00 0°C° 0 mm 7 m/S 758 mmHg 31%
    16:00 -1°C° 0 mm 6 m/S 758 mmHg 35%
    17:00 -2°C° 0 mm 6 m/S 759 mmHg 39%
    18:00 -4°C° 0 mm 5 m/S 759 mmHg 42%
    19:00 -4°C° 0 mm 5 m/S 759 mmHg 44%
    20:00 -5°C° 0 mm 5 m/S 760 mmHg 46%
    21:00 -5°C° 0 mm 6 m/S 760 mmHg 48%
    22:00 -5°C° 0 mm 5 m/S 760 mmHg 50%
    23:00 -6°C° 0 mm 5 m/S 760 mmHg 53%
    Mehr zeigen